{"data":{"norad_id":64072,"epoch":"2026-09-20T08:22:46.538400Z","epoch_age_seconds":156628,"freshness":"FRESH","line1":"1 64072U 25107J   26263.34914975  .00135081  00000+0  10394-2 0  9991","line2":"2 64072  42.9996   4.8254 0004075 295.7328  64.3119 15.70828118 77914","mean_motion":15.70828118,"eccentricity":0.0004075,"inclination_deg":42.9996,"raan_deg":4.8254,"arg_perigee_deg":295.7328,"mean_anomaly_deg":64.3119,"bstar":0.0010394,"rev_number":7791,"period_min":91.671391891904,"perigee_km":353.78464635811,"apogee_km":359.27339916666,"semimajor_km":6734.6660227624,"source":"CELESTRAK","updated_at":"2026-09-21T09:00:35.193191Z"}}